Regional Weather Roundup
Issued by NWS

Home | Current Version | Previous Version | Graphics & Text | Print | Product List | Glossary On
Versions: 1 2 3 4 5 6 7 8 9 10 11 12 13 14 15 16 17 18 19 20 21 22 23 24 25 26 27 28 29 30 31 32 33 34 35 36 37 38 39 40 41 42 43 44 45 46 47 48 49 50
000
ASUS45 KSLC 052210
RWRUT

UTAH REGIONAL WEATHER ROUNDUP
NATIONAL WEATHER SERVICE SALT LAKE CITY UT
400 PM MDT TUE MAY 05 2015

UTZ001>011-023>025-052300-

NORTHERN UTAH

CITY           SKY/WX    TMP DP  RH WIND       PRES   REMARKS
HILL AFB       NOT AVBL
LOGAN          LGT RAIN  58  48  69 NW12      29.82R
OGDEN          CLOUDY    66  46  48 W6        29.78F
PROVO AIRPORT  PTSUNNY   61  46  59 SW6       29.81F
SALT LAKE CITY CLOUDY    63  48  58 S8        29.78F
VERNAL         CLOUDY    61  43  51 SE6       29.77R
WENDOVER       CLOUDY    72  37  28 W25       29.76S
HEBER CITY     CLOUDY    57  45  62 E13       29.83F
WEST JORDAN    PTSUNNY   59  52  77 CALM      29.81F

$$

UTZ012>022-026-027-052300-

SOUTHERN/CENTRAL UTAH

CITY           SKY/WX    TMP DP  RH WIND       PRES   REMARKS
BLANDING       PTSUNNY   55  50  81 S7        29.93F
BRYCE CANYON   CLOUDY    54  41  61 W12       29.94F
CEDAR CITY     MOSUNNY   65  43  44 S7        29.85F
DELTA          CLOUDY    59  47  64 CALM      29.82S
HANKSVILLE     CLOUDY    64  46  52 W15       29.81S
MILFORD        LGT RAIN  58  50  75 S9        29.82F
MOAB/CYNLANDS  SUNNY     62  48  60 S10       29.76F
PRICE          CLOUDY    62  41  46 NE15      29.81F
ST GEORGE      CLOUDY    73  43  33 W9G23     29.80F
KANAB          MOSUNNY   70  39  32 W9G21     29.89F

$$

REGIONAL REPORTS     COLORADO/ARIZONA

CITY           SKY/WX    TMP DP  RH WIND       PRES   REMARKS
CRAIG, CO        N/A     68  39  34 MISG      29.75F
GRAND JUNCTION LGT RAIN  58  50  75 N16       29.78F
RIFLE          CLOUDY    64  43  46 W18       29.76F
MONTROSE       CLOUDY    54  46  74 SE8       29.85F
CORTEZ         CLOUDY    55  47  74 VRB5      29.87F
PAGE, AZ       PTSUNNY   71  43  36 NW18G26   29.81S
GRAND CANYON   CLOUDY    57  40  52 W12G22    29.96F
KINGMAN        SUNNY     75  41  29 SW9G26    29.87F
FLAGSTAFF      PTSUNNY   53  45  74 W10G18    29.99F

$$

REGIONAL REPORTS    NEVADA/IDAHO/WYOMING

CITY           SKY/WX    TMP DP  RH WIND       PRES   REMARKS
LAS VEGAS, NV  MOSUNNY   84  33  16 S14G21    29.70F
ELY            CLOUDY    64  33  31 SE8       29.86F
ELKO           PTSUNNY   72  26  18 W7        29.79F
POCATELLO, ID  MOSUNNY   70  38  31 SW15      29.76F
BURLEY         MOSUNNY   70  30  22 W17G26    29.76F
EVANSTON, WY   LGT RAIN  49  44  83 SE3       29.90F
ROCK SPRINGS   CLOUDY    62  34  35 NE14      29.80F
KEMMERER       RAIN      50  41  71 SE7       29.89R

$$


USA.gov is the U.S. government's official web portal to all federal, state and local government web resources and services.